Regional Weather Roundup
Issued by NWS Green Bay, WI

Home | Current Version | Previous Version | Text Only | Print | Product List | Glossary On
Versions: 1 2 3 4 5 6 7 8 9 10 11 12 13 14 15 16 17 18 19 20 21 22 23 24 25 26 27 28 29 30 31 32 33 34 35 36 37 38 39 40 41 42 43 44 45 46 47 48 49 50
000
ASUS43 KGRB 301211
RWRGRB

NORTH-CENTRAL AND NORTHEAST WISCONSIN REGIONAL WEATHER ROUNDUP
NATIONAL WEATHER SERVICE GREEN BAY WI
700 AM CDT SAT APR 30 2016

WIZ005-009-010>012-018-019-301300-
NORTH CENTRAL WISCONSIN

CITY           SKY/WX    TMP DP  RH WIND       PRES   REMARKS
IRONWOOD         N/A     36  34  93 E6        30.20S
MANITOWISH WTR SUNNY     36  31  82 NE8       30.20R
ARBOR VITAE    CLOUDY    39  32  74 NE5       30.19R
EAGLE RIVER    CLOUDY    35  29  79 CALM      30.19R
LAND O LAKES   SUNNY     36  30  80 NE6       30.21R
RHINELANDER    CLOUDY    37  29  72 E7        30.18R
PHILLIPS       CLOUDY    36  31  81 NE3       30.17R
ANTIGO         CLOUDY    37  32  83 NE8       30.17S
TOMAHAWK       CLOUDY    37  29  75 E3        30.18R
MERRILL        CLOUDY    34  31  87 NE3       30.17S
$$

WIZ013-073-301300-
NORTHEAST WISCONSIN

CITY           SKY/WX    TMP DP  RH WIND       PRES   REMARKS
IRON MOUNTAIN  CLOUDY    35  29  78 NW3       30.18S
MARINETTE      CLOUDY    43  30  61 NE7       30.17S
OCONTO         CLOUDY    39  35  83 NE3       30.16F
$$

WIZ017-030-035>037-045-301300-
CENTRAL WISCONSIN

CITY           SKY/WX    TMP DP  RH WIND       PRES   REMARKS
MEDFORD        CLOUDY    36  30  81 NE8       30.14R
WAUSAU         PTSUNNY   42  30  62 E5        30.14R
MOSINEE        SUNNY     37  32  81 NE6       30.15R
MARSHFIELD     CLOUDY    40  30  67 NE8       30.11F
WISC RAPIDS    CLOUDY    40  29  64 NE8       30.13F
STEVENS POINT  CLOUDY    37  30  77 NE7       30.13S
WAUPACA        PTSUNNY   40  33  76 NE6       30.14F
SHAWANO        CLOUDY    41  33  74 NE9       30.16S
CLINTONVILLE   PTSUNNY   37  32  81 NE7       30.15S
WAUTOMA        CLOUDY    40  32  73 NE9       30.12F
$$

WIZ038-039-048-051-301300-
FOX VALLEY

CITY           SKY/WX    TMP DP  RH WIND       PRES   REMARKS
NWS GREEN BAY  CLOUDY    43  38  82 NE10      30.15S
APPLETON       PTSUNNY   39  32  75 NE8       30.11F
OSHKOSH        CLOUDY    44  33  65 NE9       30.12S
FOND DU LAC    CLOUDY    41  32  70 E5        30.12R
$$

WIZ022-050-052-301300-
EAST CENTRAL WISCONSIN

CITY           SKY/WX    TMP DP  RH WIND       PRES   REMARKS
EPHRAIM        FAIR      41  32  71 NE5       30.16S
STURGEON BAY   CLOUDY    39  34  81 E6        30.18S
MANITOWOC      MOSUNNY   38  36  92 N3        30.15R
SHEBOYGAN      MOSUNNY   39  35  86 NE6       30.13S
$$

LMZ563-521-522-541>543-301300-
LAKESHORE

STATION/POSITION TIME  TEMP    WIND        PRES    VSBY  WAVE
                       AIR SEA DIR/SP/G                  HT/PER
                 (UTC) (F)     (DEG/KT/KT) (MB)    (MI)  (FT/S)
SHEBOYGAN LKSHOR 1200   41      10/  6/  7 1021.3R
KEWAUNEE LKSHORE 1100   41      40/ 10/ 12 1020.2S
ALGOMA MARINA    1115           60/ 13/ 16   N/A
NORTHPORT PIER   1102   42     340/  2/  6 1021.7R
N MID LAKE BUOY  1150   40 38   20/ 12/ 14 1022.2R         1/ 3
CHAMBERS ISLAND  1100   41      10/  9/ 11 1022.0R
MENOMINEE LKSHOR 1100   42      30/ 11/ 13 1020.6R
$$




USA.gov is the U.S. government's official web portal to all federal, state and local government web resources and services.